Japanese version Home page |
Updated on November 26, 2024 |
|
Orbital ElementsEpoch 2024 Oct. 17.0 TT = JDT 2460600.5 T 2024 June 30.63536 TT Rudenko q 4.8359692 (2000.0) P Q z +0.0013613 Peri. 188.07566 +0.08359928 +0.62007185 +/-0.0000159 Node 270.24854 +0.95231621 +0.18080130 e 0.9934166 Incl. 128.73159 +0.29343654 -0.76342766 From 74 observations 2023 Nov. 13-2024 Nov. 9, mean residual 0".4.
|
Magnitudes Graphm1 = 6.5 + 5 log d + 15.0 log r(t - 200)
|
The orbital elements are published on M.P.E.C. 2024-V192.
|